TimeEDT,TemperatureF,Dew PointF,Humidity,Sea Level PressureIn,VisibilityMPH,Wind Direction,Wind SpeedMPH,Gust SpeedMPH,PrecipitationIn,Events,Conditions,WindDirDegrees,DateUTC
12:53 AM,62.1,60.1,93,30.25,9.0,Calm,Calm,-,N/A,,Clear,0,2013-08-18 04:53:00
1:53 AM,62.1,60.1,93,30.24,8.0,Calm,Calm,-,N/A,,Clear,0,2013-08-18 05:53:00
2:53 AM,61.0,59.0,93,30.23,9.0,NW,3.5,-,N/A,,Clear,320,2013-08-18 06:53:00
3:53 AM,61.0,59.0,93,30.23,10.0,Calm,Calm,-,N/A,,Clear,0,2013-08-18 07:53:00
4:53 AM,61.0,59.0,93,30.22,9.0,Calm,Calm,-,N/A,,Clear,0,2013-08-18 08:53:00
5:53 AM,61.0,59.0,93,30.23,8.0,Calm,Calm,-,N/A,,Clear,0,2013-08-18 09:53:00
6:53 AM,61.0,60.1,97,30.24,6.0,Calm,Calm,-,N/A,,Clear,0,2013-08-18 10:53:00
7:53 AM,64.0,61.0,90,30.25,10.0,Calm,Calm,-,N/A,,Clear,0,2013-08-18 11:53:00
8:53 AM,66.9,62.1,84,30.24,10.0,Calm,Calm,-,N/A,,Clear,0,2013-08-18 12:53:00
9:53 AM,70.0,61.0,73,30.25,10.0,Calm,Calm,-,N/A,,Clear,0,2013-08-18 13:53:00
10:53 AM,73.0,61.0,66,30.24,10.0,Calm,Calm,-,N/A,,Clear,0,2013-08-18 14:53:00
11:53 AM,75.0,60.1,60,30.23,10.0,Variable,3.5,-,0.00,Rain,Light Rain,0,2013-08-18 15:53:00
12:53 PM,75.9,59.0,56,30.22,10.0,Calm,Calm,-,0.00,,Mostly Cloudy,0,2013-08-18 16:53:00
1:53 PM,75.9,59.0,56,30.20,10.0,North,4.6,-,N/A,,Mostly Cloudy,10,2013-08-18 17:53:00
2:53 PM,75.9,60.1,58,30.17,10.0,North,5.8,-,0.00,,Clear,350,2013-08-18 18:53:00
3:53 PM,75.9,61.0,60,30.14,10.0,North,6.9,-,N/A,,Partly Cloudy,350,2013-08-18 19:53:00
4:53 PM,73.9,61.0,64,30.14,10.0,North,3.5,-,0.00,Rain,Light Rain,360,2013-08-18 20:53:00
5:53 PM,73.9,62.1,66,30.14,10.0,NNW,3.5,-,0.00,Rain,Light Rain,340,2013-08-18 21:53:00
6:53 PM,72.0,64.9,78,30.13,10.0,Calm,Calm,-,0.00,,Scattered Clouds,0,2013-08-18 22:53:00
7:53 PM,69.1,66.0,90,30.14,10.0,Calm,Calm,-,N/A,,Clear,0,2013-08-18 23:53:00
8:53 PM,66.9,64.9,93,30.14,10.0,Calm,Calm,-,N/A,,Clear,0,2013-08-19 00:53:00
9:53 PM,64.9,64.0,97,30.14,5.0,Calm,Calm,-,N/A,,Clear,0,2013-08-19 01:53:00
10:53 PM,64.0,63.0,96,30.14,1.0,Calm,Calm,-,N/A,,Mist,0,2013-08-19 02:53:00
10:56 PM,64.4,62.6,94,30.14,0.8,Calm,Calm,-,N/A,,Clear,0,2013-08-19 02:56:00
11:07 PM,64.4,62.6,94,30.14,2.5,Calm,Calm,-,N/A,,Clear,0,2013-08-19 03:07:00
11:15 PM,64.4,62.6,94,30.14,1.0,Calm,Calm,-,N/A,,Mist,0,2013-08-19 03:15:00
11:20 PM,62.6,62.6,100,30.14,0.2,Calm,Calm,-,N/A,Fog,Fog,0,2013-08-19 03:20:00
11:32 PM,64.4,62.6,94,30.14,1.0,Calm,Calm,-,N/A,,Mist,0,2013-08-19 03:32:00
11:35 PM,62.6,62.6,100,30.13,2.5,Calm,Calm,-,N/A,,Scattered Clouds,0,2013-08-19 03:35:00
11:44 PM,62.6,62.6,100,30.13,0.8,Calm,Calm,-,N/A,,Mist,0,2013-08-19 03:44:00
11:53 PM,63.0,62.1,97,30.14,0.2,Calm,Calm,-,N/A,Fog,Fog,0,2013-08-19 03:53:00